Other Public Products
Issued by NWS Grand Forks, ND

Home | Current Version | Previous Version | Graphics & Text | Print | Product List | Glossary On
Versions: 1 2 3 4 5 6 7 8 9 10 11 12 13 14 15 16 17 18 19 20 21 22 23 24 25 26 27 28 29 30 31 32 33 34 35 36 37 38 39 40 41 42 43 44 45 46 47 48 49 50
000
FPUS83 KFGF 210310
OPUFGF
PRAIRIE TO PINES WEATHER ROUNDUP
NATIONAL WEATHER SERVICE EASTERN NORTH DAKOTA/GRAND FORKS ND
900 PM CST MON NOV 20 2017

 **SATELLITE DATA USED TO AUGMENT SKY COVER AT AUTOMATED STATIONS**
 *****  WEATHER ACROSS EASTERN NORTH DAKOTA  *****

CITY           SKY/WX    TMP DP  RH WIND       PRES   REMARKS
GRAND FORKS    MOCLDY    26  18  71 NW28G47   29.54R WCI  10
GRND FORKS AFB PTCLDY    25  16  69 N31       29.55R WCI   8
GRND FORKS NWS NOT AVBL
BUXTON         NOT AVBL
DEVILS LAKE    CLOUDY    22  17  81 NW20      29.58R WCI   7
FARGO          FAIR      33  23  66 W23G35    29.56R WCI  21
WAHPETON ARPT  NOT AVBL
$$

 *****  WEATHER ACROSS CENTRAL AND WESTERN NORTH DAKOTA  *****

CITY           SKY/WX    TMP DP  RH WIND       PRES   REMARKS
JAMESTOWN      FAIR      28  20  71 NW25G32   29.61R WCI  13
BISMARCK       MOCLDY    37  18  46 NW24G32   29.71R
MINOT          CLOUDY    14   5  67 NW32G46   29.76R WCI  -7
MINOT AFB      FAIR      12   5  73 NW31G38   29.73R WCI -10
GARRISON         N/A     21  12  68 NW26G33   29.73R WCI   4
WILLISTON      CLOUDY    18   4  54 N20G32    29.89R WCI   2
DICKINSON      CLOUDY    32  11  41 NW20G25   29.74R WCI  20
HETTINGER      FLURRIES  34  15  46 NW23G29   29.78R WCI  22
$$

 *****  OTHER OBSERVATIONS NORTHEAST NORTH DAKOTA  *****

CITY           SKY/WX    TMP DP  RH WIND       PRES   REMARKS
WALHALLA       FAIR      21  14  73 NW26G41   29.51R WCI   4
LANGDON        FAIR      19  12  73 NW30G43   29.50R WCI   0
CAVALIER       MOCLDY    23  14  68 NW24G36   29.51R WCI   7
GRAFTON        CLOUDY    25  16  68 NW32G45   29.56R WCI   7
CANDO          CLOUDY    21  14  73 NW16      29.59S WCI   7
FORT TOTTEN      N/A     23  16  74 NW13      29.95  WCI  11
ROLLA          FLURRIES  19  12  73 NW36G49   29.54R WCI  -1
RUGBY            N/A     18  12  79 NW31G41   29.62R WCI  -2
 ***** THE ABOVE OBSERVATIONS ARE NON NWS ARE NOT QUALITY
        CONTROLLED AND MAY MIS-REPORT RAIN FOR SNOW...
$$

 *****  OTHER OBSERVATIONS SOUTHEAST NORTH DAKOTA *****

CITY           SKY/WX    TMP DP  RH WIND       PRES   REMARKS
COOPERSTOWN    FAIR      25  19  80 W29G40    29.57R WCI   8
VALLEY CITY    FLURRIES  28  18  64 NW24G36   29.61R WCI  14
OAKES            N/A     34  18  51 NW24G31   29.63R WCI  21
GWINNER          N/A     36  16  44 NW22G33   29.61R
SHEYENNE NWR     N/A     35  18  50 NW17      29.95S WCI  25
BUFFALO        NOT AVBL
WYNDMERE       NOT AVBL
 ***** THE ABOVE OBSERVATIONS ARE NON NWS ARE NOT QUALITY
       CONTROLLED AND MAY MIS-REPORT RAIN FOR SNOW...
$$

  *****  WEATHER ACROSS NORTHERN MINNESOTA  *****

CITY           SKY/WX    TMP DP  RH WIND       PRES   REMARKS
FLAG ISLAND    CLOUDY    25  18  74 W31G43    29.29R WCI   8
WARROAD        CLOUDY    25  16  68 W25G37    29.36R WCI   9
ROSEAU         CLOUDY    25  16  68 NW28G43   29.37R WCI   8
HALLOCK        CLOUDY    25  19  80 NW25G35   29.47R WCI   9
THF RVR FALLS  CLOUDY    25  19  78 NW32G39   29.46R WCI   8
HALSTAD        NOT AVBL
FOSSTON        CLOUDY    28  19  69 W25G39    29.48R WCI  14
BAUDETTE       CLOUDY    27  19  72 W29G46    29.30R WCI  11
WASKISH        CLOUDY    30  27  86 W22G41    29.35R WCI  17
CROOKSTON      CLOUDY    28  19  69 NW26G35   29.52R WCI  13
$$
  *****  WEATHER ACROSS CENTRAL AND WEST MINNESOTA  *****

CITY           SKY/WX    TMP DP  RH WIND       PRES   REMARKS
BEMIDJI        CLOUDY    33  27  77 W28G39    29.37R WCI  20
PARK RAPIDS    MOCLDY    36  27  69 NW28G40   29.41R
WADENA         FAIR      36  28  75 W17G28    29.45R
DETROIT LAKES  FAIR      34  28  80 W18G28    29.49R WCI  23
MOORHEAD       FAIR      34  23  64 W26       29.57R WCI  21
FERGUS FALLS   FAIR      36  27  69 NW26G32   29.55R
ELBOW LAKE     FAIR      36  27  70 NW21G30   29.54R
MORRIS MN      FAIR      39  28  65 NW23      29.55R
STAPLES        FAIR      37  28  70 W21G30    29.44R
WHEATON        FAIR      37  19  48 W20G30    29.60R
$$
  *****  WEATHER ELSEWHERE ACROSS MINNESOTA  *****

CITY           SKY/WX    TMP DP  RH WIND       PRES   REMARKS
DULUTH         FAIR      34  27  75 W16       29.27F WCI  24
INTRNTL FALLS  CLOUDY    37  29  72 NW28G39   29.20R
ELY            FAIR      34  27  75 SW7       29.19F
CLOQUET        FAIR      36  27  69 SW8       29.29F
BRAINERD       FAIR      42  29  59 W12G32    29.41R
HIBBING        FAIR      36  26  67 W8        29.25F
ALEXANDRIA     FAIR      39  28  64 NW23G37   29.51R
SAINT CLOUD    FAIR      44  28  53 W17G24    29.45R
MINNEAPOLIS    FAIR      43  28  55 W10       29.48R
$$

  *****  WEATHER ACROSS SOUTH DAKOTA  *****

CITY           SKY/WX    TMP DP  RH WIND       PRES   REMARKS
SIOUX FALLS    FAIR      39  25  57 W7        29.62R
BROOKINGS        N/A     37  22  54 NW9       29.62
WATERTOWN      FAIR      39  27  62 NW15      29.61R
HURON          FAIR      44  24  45 NW12      29.65R
SISSETON         N/A     38  25  59 NW22      29.59R
ABERDEEN       FAIR      37  20  50 N16       29.68R
MITCHELL       FAIR      41  24  51 NW12      29.66R
PIERRE         FAIR      44  28  53 NW13      29.69R
MOBRIDGE       CLOUDY    41  23  48 NW18G30   29.69R
RAPID CITY     MOCLDY    44  23  43 N8        29.74R
$$

  *****  SOME WEATHER IN NEARBY STATES *****

CITY           SKY/WX    TMP DP  RH WIND       PRES   REMARKS
GLASGOW MT     CLOUDY    27  15  61 NW21      29.92R WCI  13
GREAT FALLS MT CLOUDY    27  21  78 NE14      29.93R WCI  16
CHEYENNE WY    FAIR      48  12  23 W23G31    29.88S
SCOTTSBLUFF NE FAIR      48  17  29 CALM      29.80R
OMAHA NE       FAIR      45  28  51 SE6       29.66R
DES MOINES IA  FAIR      47  30  51 SW8       29.65R
DAVENPORT IA   FAIR      49  31  49 S14G24    29.70F
CHICAGO IL     CLOUDY    47  30  51 S23G37    29.72F
EAU CLAIRE WI  FAIR      44  28  53 SW13      29.44F
LA CROSSE WI   FAIR      52  29  41 SW15      29.51R
$$

  *****  SOME NATIONAL WEATHER *****

CITY           SKY/WX    TMP DP  RH WIND       PRES   REMARKS
LA GUARDIA NY  FAIR      47  23  38 W14G22    30.11S
RALEIGH NC     MOCLDY    39  29  67 CALM      30.25R
ATLANTA GA     FAIR      46  36  68 E6        30.18S
NEW ORLEANS LA CLOUDY    54  49  83 E6        30.13F
OKLAHOMA CITY  MOCLDY    49  29  46 S13       29.87S
ALBUQUERQUE NM MOCLDY    48   3  15 CALM      30.11R
SALT LAKE CITY CLOUDY    44  36  73 CALM      30.13S
LOS ANGELES CA FAIR      66  41  40 CALM      30.01R
BOISE ID       CLOUDY    47  42  83 SE14      29.99R
SEATTLE WA     FAIR      43  40  89 NE7       30.00R
$$

*** WEATHER ACROSS MANITOBA...SASKATCHEWAN AND ONTARIO ***
                ***ONTARIO***

CITY           SKY/WX    TMP DP  RH WIND       PRES   REMARKS
GERALDTON      CLOUDY    32  32 100 SE12G17   29.15F FOG     WCI  23
THUNDER BAY    CLOUDY    28  28 100 SW2       29.15F
SIOUX LOOKOUT  LGT SNOW  32  30  93 W7        29.05F
TORONTO        CLEAR     41  30  65 SW13      29.81F
BIG TROUT LK   FLURRIES   5   1  85 N5        29.45S WCI  -4
PICKLE LAKE    NOT AVBL
DRYDEN         LGT SNOW  32  30  93 W17G28    29.09R WCI  21
KENORA         LGT SNOW  25  21  86 W9G24     29.20R WCI  15
$$
                *** MANITOBA***

CITY           SKY/WX    TMP DP  RH WIND       PRES   REMARKS
BRANDON        MOCLDY    16   7  67 NW36G53   29.61R WCI  -6
DAUPHIN        LGT SNOW  14  10  85 NW16G25   29.70R WCI  -2
ISLAND LAKE    FLURRIES   9   5  85 N12G18    29.57R WCI  -6
PILOT MOUND      N/A     18  10  73 NW29G36     N/A  WCI  -2
THE PAS        PTCLDY     5   0  78 NW9       29.84R WCI  -9
THOMPSON       FLURRIES   7   3  85 NW9       29.72R WCI  -7
WINNIPEG       NOT AVBL
LYNN LAKE      FLURRIES  10   9  92 NW10G20   29.81R WCI  -3
CHURCHILL      LGT SNOW  16  16 100 NW24G30   29.57S BLWGSNOWWCI  -3
$$
                ***SASKATCHEWAN***

CITY           SKY/WX    TMP DP  RH WIND       PRES   REMARKS
ESTEVAN        FLURRIES   9   1  72 NW28G33   29.83R WCI -13
KINDERSLEY     PTCLDY    -4  -9  77 NW17      30.04R WCI -26
LLOYDMINSTER   PTCLDY    -4  -8  84 NW7       30.06R WCI -18
PRINCE ALBERT  MOCLDY     9   0  66 NW14      29.98R WCI  -8
REGINA         CLOUDY     5  -2  72 NW29G36   29.92R WCI -19
YORKTON        FLURRIES  10   7  85 NW18G25   29.79R WCI  -8
N. BATTLEFORD  CLOUDY     0  -8  71 W13G20    30.07R WC



USA.gov is the U.S. government's official web portal to all federal, state and local government web resources and services.